Overview Statistics Trail Chart Weather Telemetry Raw packets
 

This is the latest recevied weather packets stored in our database for station/object N7WGJ. If no packets are shown the sender has not sent any weather packets the latest 10 day(s).

<< 45 46 47 48 49 50 51 >>
Time Temp. Humidity Pressure Rain* Wind** Luminosity Snow
1787983886 15.56° C 82% 1016.5 hPa 0 mm - - -
1787983309 15.56° C 81% 1016.5 hPa 0 mm - - -
1787982702 15.56° C 80% 1016.3 hPa 0 mm - - -
1787982093 16.11° C 80% 1016.4 hPa 0 mm - - -
1787981496 16.11° C 80% 1016.5 hPa 0 mm - - -
1787980893 16.11° C 79% 1016.6 hPa 0 mm - - -
1787980294 16.11° C 78% 1016.5 hPa 0 mm - - -
1787979697 16.11° C 77% 1016.6 hPa 0 mm - - -
1787979084 16.67° C 76% 1016.5 hPa 0 mm - - -
1787978486 16.67° C 74% 1016.5 hPa 0 mm - - -
1787977902 16.67° C 74% 1016.4 hPa 0 mm - - -
1787977287 17.22° C 73% 1016.3 hPa 0 mm - - -
1787976687 17.22° C 72% 1016.3 hPa 0 mm - - -
1787976108 17.78° C 72% 1016.2 hPa 0 mm - - -
1787975503 17.78° C 71% 1016.2 hPa 0 mm - - -
1787974903 18.33° C 70% 1016.1 hPa 0 mm - - -
1787974301 18.33° C 69% 1015.9 hPa 0 mm - - -
1787973684 18.89° C 68% 1015.7 hPa 0 mm - - -
1787973086 19.44° C 67% 1015.6 hPa 0 mm - - -
1787972507 19.44° C 66% 1015.6 hPa 0 mm - - -
1787971898 20° C 64% 1015.5 hPa 0 mm - - -
1787971301 20° C 63% 1015.4 hPa 0 mm - - -
1787970704 20° C 62% 1015.4 hPa 0 mm - - -
1787970087 20.56° C 62% 1015.4 hPa 0 mm - - -
1787969489 20.56° C 61% 1015.4 hPa 0 mm - - -

* Rain latest hour (hover to see other rain measurements)
** Current wind speed in m/s (hover to see current wind gust speed)